Погода Большая Мурта

Погода Большая Мурта : погода сейчас, прогноз погоды и архив. Всё, что Вы хотите узнать о погоде Большая Мурта!

Хотите узнать прогноз погоды Большая Мурта? Тогда Вам сюда: Погода Большая Мурта

Поиск расширенной информации на нашем сайте:

Другие новости

Новости СМИ2

Главная страница сайта

Новости сайта

02.10.2013

Напоминаем, что на нашем новом сайте вы можете получить высокодетализированные прогнозы погоды по пунктам России, СНГ и мира (включающие важные для авиации метеовеличины, такие как направление и скорость ветра, видимость, явления погоды, количество и форма облачности, нижняя и верхняя граница облачности), а также ознакомиться с разнообразными материалами по авиационной метеорологии и подборкой полезных ссылок на эту тему.

Сайт Метеоцентр.Азия посвящён разработке технологий оптимизации авиаметеорологического обслуживания, включая проектирование и перспективное создание нескольких автоматизированных авиаметеорологических систем:
- система выпуска высокодетальных прогностических карт явлений погоды для нижнего воздушного пространства по России и ближнему зарубежью;
- система верификации прогнозов TAF (выпускаемых синоптиками официальных АМСГ РФ и ближнего зарубежья) и AUTOTAF (выпускаемых сайтом Метеоцентр.Азия) - выявление ошибок, онлайн-сопоставление с фактической погодой METAR, автоматическое внесение коррективов в прогнозы при резком отклонении фактической погоды от прогноза, подсчёт оправдываемости прогнозов по элементам и в целом;
- система обработки, анализа и отображения авиаметеорологической информации для применения провайдерами метеорологической информации.

Рекомендуем: промокод связной сентябрь 2015

Погода Большая Мурта - сегодня

Время (UTC), дата Ветер
(°,м/с) 
Видим.   Явления Облачность Т
(°С)
Тd
(°С)
f(%) Тe
(°С)
Pmin
(гПа)
dP
(гПа)
Po
(мм)
O2
(г/м3)
Тmin Tmax R s Состояние
почвы
21 19.06.17 тихо ()   20000 м    6/0 верхняя 
[Ci fib]
+13.4 +10.5 83 +15  1007.8  -0.5  740  282           
00 20.06.17 тихо ()   20000 м    3/0 верхняя 
[Ci fib]
+18.6 +12.2 66 +23  1007.6  0.2  740  277  +12.8        сухая 
03 20.06.17 060 (СВ) 20000 м    4/0 верхняя 
[Ci fib]
+26.4 +9.2 34 +27  1006.3  -0.7  740  270           
06 20.06.17 120 (ЮВ) 20000 м    4/0 верхняя 
[Ci fib]
+30.4 +7.9 25 +30  1005.3  -0.8  739  267           
09 20.06.17 130 (ЮВ) 20000 м    9/0 верхняя 
[Ci]
+32 +3.9 17 +32  1003.9  -1.2  738  266           
12 20.06.17 050 (СВ) 20000 м    3/0 верхняя 
[Ci ing]
+31.3 +8.7 25 +31  1002.9  -1.1  737  265    +33       
15 20.06.17 190 (Ю) 20000 м    1/0 верхняя 
[Ci fib]
+22.3 +14.1 60 +30  1003.3  -0.1  737  272           
18 20.06.17 тихо ()   20000 м    ясно 
+17.3 +12.8 75 +23  1003.5  -0.2  737  277           
21 20.06.17 тихо ()   20000 м    ясно 
+14.3 +13.4 94 +21  1002.8  -0.9  736  279           
00 21.06.17 тихо ()   20000 м    ясно 
+19 +13.7 71 +26  1001.8  -0.7  736  274  +13.9        сухая 
03 21.06.17 тихо ()   10 км    8/1 1000 м верхняя 
[Cu hum|Ci]
+27.7 +10.6 34 +30  1000.8  -0.4  735  267           
06 21.06.17 110 (В) 20000 м    4/1 1000 м верхняя 
[Cu hum|Ci fib]
+32.1 +11.4 28 +36  999.2  -1.2  735  263           
09 21.06.17 190 (Ю) 20000 м  в посл. час ливневой дождь  9/4 600 м кучево-дожд., средняя, верхняя 
[Cb cap|Ac trans|Ci fib]
+33 +10 24 +35  998.3  -0.9  734  262           
12 21.06.17 290 (З) 20000 м  {ливн. осадки}  6/1 1000 м средняя, верхняя 
[Cu hum|Ac trans|Ci fib]
+32.6 +11.9 28 +37  998.2  734  262    +33.5  0.0     
15 21.06.17 260 (З) 10 км  гроза без осадков  9/9 600 м кучево-дожд. 
[Cb cap]
+24.9 +19.8 73 +44  1000.9  2.1  735  267           
18 21.06.17 200 (Ю) 10 км  в посл. час ливневой дождь{гроза}  10/10 600 м кучево-дожд. 
[Cb cap]
+21.4 +20.5 95 +42  1003.1  737  270           
21 21.06.17 120 (ЮВ) 4000 м  дымка  10/4 600 м кучево-дожд., верхняя 
[Cb cap|Cs]
+20 +19.4 96 +38  1004.3  738  272           
00 22.06.17 250 (З) 4000 м  дымка  9/4 600 м кучево-дожд., средняя 
[Cb cap|Ac trans]
+21.5 +19.5 88 +40  1006.1  1.9  739  271  +19.5      влажная 
03 22.06.17 230 (ЮЗ) 20000 м    4/4 1000 м 
[Cu med, cong]
+24.3 +17.4 65 +38  1007.1  1.2  740  270           
06 22.06.17 230 (ЮЗ) 20000 м    6/4 1000 м верхняя 
[Cu med, cong|Ci fib]
+27.4 +14.6 46 +36  1006.8  -0.1  740  268           
09 22.06.17 320 (СЗ) 20000 м    6/4 1000 м верхняя 
[Cu med, cong|Ci fib]
+29.3 +12.5 36 +34  1005.7  -1  739  267           
12 22.06.17 060 (СВ) 20000 м    1/1 1000 м 
[Cu hum]
+28.1 +12.8 39 +34  1004.8  -1  738  267    +30       
15 22.06.17 180 (Ю) 20000 м    9/3 2000 м средняя, верхняя 
[Ac lent|Ci fib]
+22.2 +16 68 +33  1005.2  738  272           
18 22.06.17 090 (В) 20000 м    8/3 2000 м средняя, верхняя 
[Ac trans|Ci fib]
+21.8 +15.4 67 +32  1003.6  -1.6  737  272           
21 22.06.17 280 (З) 1{11}  4000 м  гроза, ливневой дождь  10/10 300 м кучево-дожд. 
[Cb cap]
+18 +17.7 98 +33  1004.7  0.9  738  275           
Время (UTC), дата Ветер
(°,м/с) 
Видим.   Явления Облачность Т
(°С)
Тd
(°С)
f(%) Тe
(°С)
Pmin
(гПа)
dP
(гПа)
Po
(мм)
O2
(г/м3)
Тmin Tmax R s Состояние
почвы

Для получения пояснительной информации подведите курсор к названию столбца.

ПОГОДА Большая Мурта - архив

Всё, что Вы хотите узнать о погоде Большая Мурта - удобно и подробно!

Выберите нужную дату (начиная с 1 января 2015* года) и нажмите кнопку "Найти".
Будут отображены архивные сводки погоды по пункту Большая Мурта, начиная с указанной даты.


Отображать данные в формате CSV (для использования в таблицах Excel)


Внимание! Наш архив погоды предназначен исключительно для личного некоммерческого использования в познавательных целях. Если Вам необходимы официальные справки о состоянии погоды (для производственных, юридических, коммерческих и т.п. целей), обращайтесь в органы Росгидромета.

*Примечание: данная дата относится к архиву по метеостанциям СССР (Россия, СНГ, Балтия).
Архив по метеостанциям Зарубежной Европы и Азии (кроме Китая) хранится 10 дней, по другим регионам земного шара (Китай, Африка, Америка, Австралия, Океания) - 1 день.

Большая Мурта - район местоположения метеостанции


Название, широта, долгота, высота метеостанции:
Большая Мурта 56.9°ш. 93.1°д. 180 м над ур. моря [Российская Федерация]

Дополнительная информация

В oтличие oт бoльшинства пoгoдных сайтoв мы публикуем пoдрoбную метеoинфoрмацию в детальнoм прoфессиoнальнoм фoрмате.

Характеристики температуры и влажнoсти вoздуха измеряются на высoте 2 м в тени вдали oт зданий и деревьев.
Скoрoсть ветра измеряется на высoте 10 м (на урoвне рoста челoвека скoрoсть ветра ниже в 1.5-2 раза). Если метеoстанция нахoдится в гoрoде или в лесу, тo скoрoсть ветра занижена на 2-4 м/с пo сравнению с oткрытым местoм. Скoрoсть ветра над акватoриями крупных рек и oзёр, а также на вершинах хoлмoв на 2-5 м/с выше, чем в oбычных услoвиях.
Атмoсфернoе давление в разных тoчках местнoсти мoжет значительнo oтличаться oт давления на метеoстанции, в зависимoсти oт услoвий рельефа (при пoдъёме на 10 м давление пoнижается примернo на 1 мм рт.ст.).